This is the latest recevied weather packets stored in our database for station/object W8KVG. If no packets are shown the sender has not sent any weather packets the latest 10 day(s).
| Time | Temp. | Humidity | Pressure | Rain* | Wind** | Luminosity | Snow |
|---|---|---|---|---|---|---|---|
| 1777585202 | 8.89° C | 71% | 1012.8 hPa | 0 mm | - | 20 W/m² | - |
| 1777584897 | 8.89° C | 70% | 1012.5 hPa | 0 mm | - | 20 W/m² | - |
| 1777584595 | 9.44° C | 70% | 1012.6 hPa | 0 mm | - | 15 W/m² | - |
| 1777584292 | 9.44° C | 69% | 1012.6 hPa | 0 mm | - | 17 W/m² | - |
| 1777583987 | 9.44° C | 69% | 1012.6 hPa | 0 mm | - | 23 W/m² | - |
| 1777583682 | 10° C | 69% | 1012.5 hPa | 0 mm | - | 36 W/m² | - |
| 1777583382 | 10° C | 70% | 1012.5 hPa | 0 mm | - | 68 W/m² | - |
| 1777583080 | 10.56° C | 71% | 1012.5 hPa | 0 mm | - | 97 W/m² | - |
| 1777582778 | 11.11° C | 66% | 1012.5 hPa | 0 mm | - | 83 W/m² | - |
| 1777582472 | 10.56° C | 67% | 1012.5 hPa | 0 mm | - | 428 W/m² | - |
| 1777582167 | 10.56° C | 68% | 1012.5 hPa | 0 mm | - | 141 W/m² | - |
| 1777581866 | 10.56° C | 67% | 1012.4 hPa | 0 mm | - | 144 W/m² | - |
| 1777581561 | 10.56° C | 67% | 1012.7 hPa | 0 mm | - | 167 W/m² | - |
| 1777581256 | 9.44° C | 71% | 1012.7 hPa | 0 mm | - | 109 W/m² | - |
| 1777580951 | 10° C | 72% | 1012.6 hPa | 0 mm | - | 68 W/m² | - |
| 1777580646 | 9.44° C | 71% | 1012.6 hPa | 0 mm | - | 84 W/m² | - |
| 1777580341 | 10° C | 70% | 1012.4 hPa | 0 mm | - | 129 W/m² | - |
| 1777580038 | 10° C | 72% | 1012.7 hPa | 0 mm | - | 252 W/m² | - |
| 1777579734 | 9.44° C | 73% | 1012.6 hPa | 0 mm | - | 190 W/m² | - |
| 1777579432 | 8.89° C | 72% | 1012.5 hPa | 0 mm | - | 139 W/m² | - |
| 1777579128 | 8.89° C | 75% | 1012.7 hPa | 0 mm | - | 67 W/m² | - |
| 1777578827 | 8.89° C | 74% | 1012.6 hPa | 0 mm | - | 66 W/m² | - |
| 1777578523 | 8.89° C | 74% | 1012.8 hPa | 0 mm | - | 72 W/m² | - |
| 1777578218 | 8.89° C | 73% | 1012.8 hPa | 0 mm | - | 42 W/m² | - |
| 1777577914 | 8.89° C | 74% | 1012.6 hPa | 0 mm | - | 45 W/m² | - |
* Rain latest hour (hover to see other rain measurements)
** Current wind speed in m/s (hover to see current wind gust speed)